WXM80 ListenWXM80 Stop

You find our weather info also at:

UK Metoffice

WeatherCloud

Weather Underground

Northeastern Weather Network

AWEKAS

Citizen Weather Observer Program (CWOP)

HAMweather, WeatherForYou, PWS Weather


Weather Underground History page Text

Daily Summary for April 20, 2017 Units:  English    Metric   Both
« Previous Day
Next Day »
Daily Weekly Monthly Yearly Custom
  High: Low: Average:
Temperature: 63.2 °F 47.3 °F 53.1 °F
Dew Point: 56.1 °F 45.9 °F 49.8 °F
Humidity: 98 % 72 % 89 %
Wind Speed: 6.3 mph 0.0 mph 1.3 mph
Wind Gust: 12.0 mph - -
Wind:- - East
Pressure: 30.21 in 29.99 in -
Precipitation: 0.00 in    
Historical Graphs
 
 
Tabular Data for April 20, 2017
Time Temperature Dew Point Pressure Wind Wind Speed Wind Gust Humidity Rainfall Rate (Hourly)
00:04 47.6 °F 46.2 °F 30.21 in Calm     95 % 0.00 in
00:09 47.6 °F 46.2 °F 30.20 in Calm     95 % 0.00 in
00:15 47.6 °F 46.2 °F 30.20 in Calm     95 % 0.00 in
00:20 47.7 °F 46.3 °F 30.20 in Calm     95 % 0.00 in
00:25 47.7 °F 46.3 °F 30.19 in Calm     95 % 0.00 in
00:30 47.8 °F 46.4 °F 30.19 in Calm     95 % 0.00 in
00:35 47.8 °F 46.4 °F 30.19 in Calm     95 % 0.00 in
00:40 47.8 °F 46.4 °F 30.20 in Calm     95 % 0.00 in
00:45 47.8 °F 46.4 °F 30.20 in Calm   1.2 mph 95 % 0.00 in
00:50 47.8 °F 46.4 °F 30.19 in SSE 0.1 mph   95 % 0.00 in
00:55 47.9 °F 46.5 °F 30.19 in SSE 0.7 mph 1.2 mph 95 % 0.00 in
01:00 47.8 °F 46.4 °F 30.19 in Calm     95 % 0.00 in
01:05 47.8 °F 46.4 °F 30.19 in Calm     95 % 0.01 in
01:10 47.8 °F 46.4 °F 30.19 in Calm     95 % 0.03 in
01:15 47.7 °F 46.3 °F 30.18 in Calm   2.3 mph 95 % 0.07 in
01:20 47.7 °F 46.3 °F 30.18 in Calm     95 % 0.07 in
01:25 47.7 °F 46.3 °F 30.18 in Calm     95 % 0.08 in
01:30 47.6 °F 46.2 °F 30.17 in Calm     95 % 0.08 in
01:35 47.6 °F 46.2 °F 30.18 in SSE 0.2 mph 1.0 mph 95 % 0.08 in
01:40 47.5 °F 46.1 °F 30.17 in SSE 0.2 mph   95 % 0.08 in
01:45 47.5 °F 46.1 °F 30.17 in SSE 0.7 mph 2.3 mph 95 % 0.08 in
01:50 47.5 °F 46.1 °F 30.17 in Calm     95 % 0.08 in
01:55 47.4 °F 46.0 °F 30.17 in SSE 0.1 mph 1.2 mph 95 % 0.08 in
02:00 47.4 °F 46.0 °F 30.17 in Calm     95 % 0.08 in
02:05 47.4 °F 46.0 °F 30.17 in SSE 0.1 mph 1.2 mph 95 % 0.06 in
02:10 47.3 °F 45.9 °F 30.17 in ENE 0.7 mph 2.0 mph 95 % 0.06 in
02:15 47.4 °F 46.0 °F 30.17 in Calm     95 % 0.03 in
02:20 47.3 °F 45.9 °F 30.16 in Calm   2.3 mph 95 % 0.05 in
02:25 47.3 °F 45.9 °F 30.15 in Calm     95 % 0.05 in
02:30 47.3 °F 45.9 °F 30.14 in Calm   1.2 mph 95 % 0.05 in
02:35 47.3 °F 45.9 °F 30.14 in Calm     95 % 0.05 in
02:40 47.3 °F 45.9 °F 30.14 in Calm     95 % 0.05 in
02:45 47.3 °F 45.9 °F 30.14 in Calm     95 % 0.05 in
02:50 47.3 °F 46.2 °F 30.14 in Calm     96 % 0.05 in
02:55 47.3 °F 46.2 °F 30.13 in Calm     96 % 0.05 in
03:00 47.4 °F 46.3 °F 30.13 in ENE 1.1 mph 2.3 mph 96 % 0.05 in
03:05 47.4 °F 46.3 °F 30.13 in Calm     96 % 0.05 in
03:10 47.4 °F 46.3 °F 30.14 in Calm     96 % 0.04 in
03:15 47.4 °F 46.3 °F 30.13 in ENE 0.1 mph 1.2 mph 96 % 0.03 in
03:20 47.4 °F 46.3 °F 30.13 in Calm     96 % 0.01 in
03:25 47.4 °F 46.3 °F 30.13 in Calm   1.2 mph 96 % 0.00 in
03:31 47.5 °F 46.4 °F 30.13 in Calm     96 % 0.00 in
03:36 47.5 °F 46.4 °F 30.13 in ENE 0.4 mph 1.2 mph 96 % 0.00 in
03:41 47.5 °F 46.4 °F 30.12 in ENE 0.3 mph 2.3 mph 96 % 0.00 in
03:46 47.5 °F 46.4 °F 30.12 in ENE 0.5 mph 1.2 mph 96 % 0.00 in
03:51 47.6 °F 46.5 °F 30.12 in ENE 0.5 mph 1.2 mph 96 % 0.00 in
03:56 47.6 °F 46.5 °F 30.12 in ENE 0.4 mph 2.3 mph 96 % 0.00 in
04:01 47.5 °F 46.4 °F 30.12 in ENE 0.8 mph 2.0 mph 96 % 0.00 in
04:06 47.5 °F 46.4 °F 30.11 in ENE 0.2 mph 1.2 mph 96 % 0.00 in
04:11 47.5 °F 46.4 °F 30.11 in ENE 0.3 mph 1.2 mph 96 % 0.00 in
04:16 47.5 °F 46.4 °F 30.11 in Calm     96 % 0.00 in
04:21 47.5 °F 46.4 °F 30.11 in Calm   1.2 mph 96 % 0.00 in
04:26 47.6 °F 46.5 °F 30.10 in ENE 1.0 mph 2.3 mph 96 % 0.00 in
04:31 47.6 °F 46.5 °F 30.10 in ENE 0.2 mph 1.2 mph 96 % 0.00 in
04:36 47.5 °F 46.4 °F 30.10 in ENE 0.7 mph 2.3 mph 96 % 0.00 in
04:41 47.5 °F 46.4 °F 30.10 in Calm     96 % 0.01 in
04:46 47.5 °F 46.4 °F 30.10 in ENE 0.3 mph 1.2 mph 96 % 0.01 in
04:51 47.6 °F 46.5 °F 30.10 in Calm   1.2 mph 96 % 0.01 in
04:56 47.5 °F 46.4 °F 30.10 in Calm     96 % 0.01 in
05:01 47.6 °F 46.5 °F 30.09 in Calm     96 % 0.01 in
05:06 47.6 °F 46.5 °F 30.10 in ENE 0.2 mph 2.3 mph 96 % 0.01 in
05:11 47.6 °F 46.5 °F 30.09 in Calm     96 % 0.01 in
05:16 47.6 °F 46.5 °F 30.09 in Calm     96 % 0.01 in
05:21 47.6 °F 46.5 °F 30.09 in Calm   1.2 mph 96 % 0.01 in
05:26 47.6 °F 46.5 °F 30.09 in Calm   1.2 mph 96 % 0.02 in
05:31 47.7 °F 46.9 °F 30.09 in Calm     97 % 0.02 in
05:36 47.6 °F 46.8 °F 30.09 in Calm     97 % 0.02 in
05:41 47.7 °F 46.9 °F 30.08 in Calm     97 % 0.01 in
05:46 47.6 °F 46.8 °F 30.08 in Calm     97 % 0.01 in
05:51 47.7 °F 46.9 °F 30.08 in Calm     97 % 0.01 in
05:56 47.7 °F 46.9 °F 30.08 in Calm     97 % 0.01 in
06:01 47.7 °F 46.9 °F 30.08 in Calm     97 % 0.01 in
06:06 47.7 °F 46.9 °F 30.08 in Calm     97 % 0.01 in
06:10 47.8 °F 47.0 °F 30.07 in ENE 0.1 mph 1.0 mph 97 % 0.01 in
06:15 47.8 °F 47.0 °F 30.07 in Calm     97 % 0.01 in
06:20 47.8 °F 47.0 °F 30.08 in Calm     97 % 0.01 in
06:25 47.8 °F 47.0 °F 30.08 in Calm     97 % 0.00 in
06:30 47.9 °F 47.1 °F 30.08 in Calm   1.0 mph 97 % 0.00 in
06:35 47.9 °F 47.1 °F 30.09 in ENE 0.2 mph 1.0 mph 97 % 0.00 in
06:40 47.9 °F 47.1 °F 30.09 in Calm     97 % 0.00 in
06:45 47.9 °F 47.1 °F 30.09 in ENE 0.4 mph 2.0 mph 97 % 0.00 in
06:50 47.9 °F 47.1 °F 30.09 in Calm     97 % 0.00 in
06:55 47.9 °F 47.1 °F 30.09 in Calm     97 % 0.00 in
07:00 47.9 °F 47.1 °F 30.09 in ENE 0.9 mph 2.3 mph 97 % 0.00 in
07:05 48.0 °F 47.2 °F 30.09 in NE 0.5 mph 3.5 mph 97 % 0.00 in
07:10 48.0 °F 47.2 °F 30.10 in NE 1.7 mph 3.5 mph 97 % 0.00 in
07:15 48.0 °F 47.2 °F 30.10 in NE 1.8 mph 3.5 mph 97 % 0.00 in
07:20 48.1 °F 47.3 °F 30.10 in NE 1.7 mph 3.5 mph 97 % 0.00 in
07:25 48.1 °F 47.3 °F 30.11 in Calm     97 % 0.00 in
07:31 48.1 °F 47.3 °F 30.11 in Calm     97 % 0.02 in
07:36 48.1 °F 47.3 °F 30.11 in Calm     97 % 0.03 in
07:41 48.1 °F 47.3 °F 30.11 in Calm     97 % 0.05 in
07:46 48.1 °F 47.3 °F 30.12 in Calm     97 % 0.06 in
07:51 48.1 °F 47.3 °F 30.11 in Calm     97 % 0.07 in
07:56 48.2 °F 47.4 °F 30.11 in Calm     97 % 0.08 in
08:01 48.3 °F 47.5 °F 30.12 in Calm     97 % 0.09 in
08:06 48.2 °F 47.4 °F 30.11 in Calm     97 % 0.10 in
08:11 48.3 °F 47.5 °F 30.11 in Calm     97 % 0.10 in
08:16 48.3 °F 47.5 °F 30.10 in NE 0.1 mph 1.2 mph 97 % 0.10 in
08:21 48.3 °F 47.5 °F 30.11 in Calm     97 % 0.11 in
08:26 48.4 °F 47.6 °F 30.11 in Calm     97 % 0.10 in
08:31 48.4 °F 47.6 °F 30.10 in Calm     97 % 0.09 in
08:36 48.5 °F 47.7 °F 30.10 in Calm     97 % 0.08 in
08:41 48.5 °F 47.7 °F 30.10 in Calm     97 % 0.07 in
08:46 48.6 °F 47.8 °F 30.10 in NE 0.3 mph 2.0 mph 97 % 0.06 in
08:51 48.6 °F 47.8 °F 30.10 in NE 1.0 mph 2.3 mph 97 % 0.05 in
08:56 48.7 °F 47.9 °F 30.10 in Calm   1.2 mph 97 % 0.04 in
09:01 48.7 °F 47.9 °F 30.10 in Calm   1.2 mph 97 % 0.04 in
09:06 48.8 °F 48.0 °F 30.10 in Calm   1.2 mph 97 % 0.03 in
09:11 48.8 °F 48.0 °F 30.10 in Calm   2.3 mph 97 % 0.03 in
09:16 48.9 °F 48.1 °F 30.10 in NE 1.1 mph 3.5 mph 97 % 0.03 in
09:21 48.8 °F 48.0 °F 30.10 in Calm   1.2 mph 97 % 0.02 in
09:26 48.9 °F 48.1 °F 30.10 in NE 0.2 mph 1.2 mph 97 % 0.02 in
09:31 48.9 °F 48.1 °F 30.10 in Calm   1.2 mph 97 % 0.02 in
09:36 48.9 °F 48.1 °F 30.11 in NNE 0.2 mph 3.5 mph 97 % 0.02 in
09:41 49.0 °F 48.2 °F 30.11 in NNE 2.0 mph 3.5 mph 97 % 0.01 in
09:46 49.0 °F 48.2 °F 30.11 in NNE 1.7 mph 3.5 mph 97 % 0.01 in
09:52 48.9 °F 48.1 °F 30.11 in NNE 0.8 mph 3.5 mph 97 % 0.01 in
09:57 48.9 °F 48.1 °F 30.10 in NNE 0.2 mph 1.0 mph 97 % 0.01 in
10:02 48.9 °F 48.1 °F 30.10 in NE 2.8 mph 3.5 mph 97 % 0.00 in
10:07 48.8 °F 48.0 °F 30.10 in ENE 2.9 mph 3.5 mph 97 % 0.00 in
10:12 48.8 °F 48.0 °F 30.10 in ENE 2.9 mph 4.6 mph 97 % 0.00 in
10:17 48.9 °F 48.1 °F 30.11 in ENE 1.8 mph 3.5 mph 97 % 0.00 in
10:22 49.1 °F 48.3 °F 30.11 in NE 0.1 mph   97 % 0.00 in
10:27 49.3 °F 48.5 °F 30.10 in NE 0.5 mph 2.3 mph 97 % 0.00 in
10:32 49.6 °F 48.8 °F 30.10 in North 0.8 mph 3.5 mph 97 % 0.00 in
10:37 49.7 °F 48.9 °F 30.10 in NE 0.6 mph 2.3 mph 97 % 0.00 in
10:42 50.3 °F 49.5 °F 30.09 in NNE 2.7 mph 3.5 mph 97 % 0.00 in
10:47 50.9 °F 50.4 °F 30.10 in NE 1.8 mph 3.5 mph 98 % 0.00 in
10:52 50.8 °F 50.0 °F 30.11 in NE 2.2 mph 3.5 mph 97 % 0.00 in
10:57 50.9 °F 50.1 °F 30.10 in Calm   1.2 mph 97 % 0.00 in
11:02 51.1 °F 50.6 °F 30.10 in NNW 1.3 mph 3.5 mph 98 % 0.00 in
11:07 51.1 °F 50.6 °F 30.10 in NNW 0.7 mph 2.3 mph 98 % 0.00 in
11:12 50.7 °F 49.9 °F 30.10 in ENE 1.5 mph 3.5 mph 97 % 0.00 in
11:17 50.5 °F 49.7 °F 30.09 in ENE 2.0 mph 3.5 mph 97 % 0.00 in
11:22 50.6 °F 49.8 °F 30.09 in ENE 2.0 mph 4.0 mph 97 % 0.00 in
11:27 50.7 °F 49.9 °F 30.09 in NE 1.5 mph 3.5 mph 97 % 0.00 in
11:32 50.8 °F 50.0 °F 30.09 in ENE 1.8 mph 3.0 mph 97 % 0.00 in
11:37 51.2 °F 50.4 °F 30.09 in NE 1.3 mph 2.3 mph 97 % 0.00 in
11:42 51.5 °F 50.7 °F 30.09 in NNE 2.0 mph 3.5 mph 97 % 0.00 in
11:47 51.9 °F 51.1 °F 30.09 in NNE 2.0 mph 5.0 mph 97 % 0.00 in
11:52 52.2 °F 51.4 °F 30.09 in NNE 0.7 mph 2.3 mph 97 % 0.00 in
11:57 52.1 °F 51.3 °F 30.08 in NNE 1.1 mph 3.5 mph 97 % 0.00 in
12:02 52.2 °F 51.1 °F 30.08 in NNE 1.0 mph 3.0 mph 96 % 0.00 in
12:07 52.5 °F 51.6 °F 30.09 in NNE 1.0 mph 3.0 mph 97 % 0.00 in
12:12 52.7 °F 51.6 °F 30.09 in NNE 2.0 mph 4.0 mph 96 % 0.00 in
12:17 52.8 °F 51.4 °F 30.08 in Calm   4.0 mph 95 % 0.00 in
12:22 53.2 °F 51.9 °F 30.08 in Calm   3.0 mph 95 % 0.00 in
12:27 53.7 °F 52.3 °F 30.08 in NNE 2.0 mph 4.0 mph 95 % 0.00 in
12:32 53.9 °F 51.9 °F 30.07 in NE 1.0 mph 4.0 mph 93 % 0.00 in
12:37 53.9 °F 51.3 °F 30.07 in NE 1.0 mph 3.0 mph 91 % 0.00 in
12:42 54.1 °F 51.5 °F 30.07 in NE 1.0 mph 3.0 mph 91 % 0.00 in
12:47 54.3 °F 51.4 °F 30.07 in Calm   4.0 mph 90 % 0.00 in
12:52 54.3 °F 50.8 °F 30.07 in ENE 2.0 mph 4.0 mph 88 % 0.00 in
12:57 54.5 °F 51.0 °F 30.07 in NE 1.8 mph 3.5 mph 88 % 0.00 in
13:02 54.7 °F 51.8 °F 30.06 in NNE 1.0 mph 3.5 mph 90 % 0.00 in
13:07 55.0 °F 51.8 °F 30.06 in NE 2.0 mph 4.0 mph 89 % 0.00 in
13:12 55.2 °F 51.4 °F 30.06 in ENE 2.1 mph 3.5 mph 87 % 0.00 in
13:17 55.2 °F 51.4 °F 30.06 in NE 1.0 mph 4.0 mph 87 % 0.00 in
13:22 55.6 °F 51.8 °F 30.06 in Calm   3.0 mph 87 % 0.00 in
13:27 56.0 °F 52.5 °F 30.06 in North 1.0 mph 3.0 mph 88 % 0.00 in
13:32 56.5 °F 53.0 °F 30.06 in WNW 1.0 mph 3.0 mph 88 % 0.00 in
13:37 56.9 °F 53.1 °F 30.06 in Calm   3.0 mph 87 % 0.00 in
13:42 57.4 °F 53.8 °F 30.06 in WNW 1.0 mph 3.0 mph 88 % 0.00 in
13:47 57.9 °F 53.8 °F 30.05 in Calm   2.0 mph 86 % 0.00 in
13:52 58.5 °F 53.7 °F 30.04 in North 1.0 mph 3.0 mph 84 % 0.00 in
13:57 58.9 °F 54.1 °F 30.05 in Calm   2.3 mph 84 % 0.00 in
14:02 59.5 °F 55.0 °F 30.05 in Calm   3.5 mph 85 % 0.00 in
14:07 60.0 °F 54.5 °F 30.05 in NNW 0.6 mph 2.3 mph 82 % 0.00 in
14:12 60.2 °F 54.7 °F 30.05 in NE 0.7 mph 2.3 mph 82 % 0.00 in
14:17 60.5 °F 54.6 °F 30.04 in NNE 1.2 mph 3.5 mph 81 % 0.00 in
14:22 61.0 °F 55.5 °F 30.04 in NNE 1.5 mph 3.5 mph 82 % 0.00 in
14:27 61.7 °F 56.1 °F 30.04 in NE 1.4 mph 3.0 mph 82 % 0.00 in
14:32 61.9 °F 55.3 °F 30.03 in NE 2.4 mph 5.0 mph 79 % 0.00 in
14:37 61.8 °F 54.5 °F 30.03 in NE 1.6 mph 2.3 mph 77 % 0.00 in
14:42 61.6 °F 54.3 °F 30.03 in ENE 2.3 mph 3.5 mph 77 % 0.00 in
14:47 61.7 °F 55.1 °F 30.03 in NE 0.5 mph 2.3 mph 79 % 0.00 in
14:52 61.6 °F 54.3 °F 30.03 in East 1.6 mph 3.5 mph 77 % 0.00 in
14:54 61.6 °F 54.7 °F 30.03 in ENE 2.3 mph 3.5 mph 78 % 0.00 in
14:59 61.5 °F 54.9 °F 30.02 in East 1.2 mph 4.6 mph 79 % 0.00 in
15:04 61.6 °F 54.3 °F 30.02 in ENE 3.7 mph 4.6 mph 77 % 0.00 in
15:09 61.5 °F 54.6 °F 30.02 in NE 2.4 mph 3.5 mph 78 % 0.00 in
15:15 61.4 °F 54.1 °F 30.03 in ENE 2.6 mph 3.5 mph 77 % 0.00 in
15:20 61.1 °F 53.8 °F 30.03 in ENE 2.1 mph 3.5 mph 77 % 0.00 in
15:25 60.9 °F 53.6 °F 30.03 in ENE 2.1 mph 3.5 mph 77 % 0.00 in
15:30 60.5 °F 53.3 °F 30.03 in NE 2.7 mph 3.5 mph 77 % 0.00 in
15:35 60.4 °F 53.9 °F 30.02 in NE 2.5 mph 3.5 mph 79 % 0.00 in
15:40 60.5 °F 54.3 °F 30.03 in ENE 1.2 mph 3.5 mph 80 % 0.00 in
15:45 60.8 °F 54.2 °F 30.03 in ENE 0.6 mph 2.3 mph 79 % 0.00 in
15:50 61.2 °F 54.6 °F 30.02 in East 1.6 mph 3.5 mph 79 % 0.00 in
15:55 61.5 °F 54.6 °F 30.02 in ENE 2.5 mph 6.9 mph 78 % 0.00 in
16:00 61.6 °F 54.3 °F 30.02 in ENE 3.4 mph 4.6 mph 77 % 0.00 in
16:05 61.9 °F 55.0 °F 30.02 in ENE 1.9 mph 3.5 mph 78 % 0.00 in
16:10 62.2 °F 54.9 °F 30.02 in ENE 2.8 mph 4.6 mph 77 % 0.00 in
16:15 62.2 °F 54.9 °F 30.02 in ENE 2.1 mph 3.5 mph 77 % 0.00 in
16:20 62.3 °F 55.0 °F 30.01 in NE 4.0 mph 5.0 mph 77 % 0.00 in
16:25 62.5 °F 55.2 °F 30.01 in East 1.8 mph 5.0 mph 77 % 0.00 in
16:30 62.6 °F 54.6 °F 30.01 in East 3.0 mph 5.8 mph 75 % 0.00 in
16:35 62.8 °F 54.8 °F 30.01 in East 3.1 mph 6.9 mph 75 % 0.00 in
16:40 63.1 °F 55.4 °F 30.01 in ENE 3.1 mph 4.6 mph 76 % 0.00 in
16:45 63.2 °F 54.4 °F 30.01 in East 2.4 mph 4.6 mph 73 % 0.00 in
16:50 63.1 °F 54.3 °F 30.01 in ENE 3.0 mph 4.6 mph 73 % 0.00 in
16:55 63.0 °F 53.8 °F 30.01 in ENE 3.7 mph 6.9 mph 72 % 0.00 in
17:00 62.8 °F 54.0 °F 30.00 in ENE 2.5 mph 3.5 mph 73 % 0.00 in
17:05 62.7 °F 54.3 °F 30.00 in East 4.8 mph 8.1 mph 74 % 0.00 in
17:10 62.6 °F 54.2 °F 30.00 in East 4.1 mph 5.8 mph 74 % 0.00 in
17:15 62.4 °F 54.0 °F 30.00 in East 3.3 mph 5.0 mph 74 % 0.00 in
17:21 62.3 °F 53.5 °F 30.00 in ESE 3.9 mph 6.9 mph 73 % 0.00 in
17:26 62.2 °F 53.4 °F 30.01 in East 4.6 mph 6.9 mph 73 % 0.00 in
17:31 62.1 °F 53.3 °F 30.00 in East 4.3 mph 5.8 mph 73 % 0.00 in
17:36 62.0 °F 53.2 °F 30.00 in East 2.2 mph 4.6 mph 73 % 0.00 in
17:41 61.9 °F 53.5 °F 30.00 in East 1.6 mph 2.3 mph 74 % 0.00 in
17:46 61.9 °F 53.5 °F 30.00 in East 2.0 mph 3.5 mph 74 % 0.00 in
17:51 62.0 °F 54.0 °F 29.99 in East 2.2 mph 3.5 mph 75 % 0.00 in
17:56 62.1 °F 54.1 °F 30.00 in East 1.4 mph 3.0 mph 75 % 0.00 in
18:01 62.3 °F 54.3 °F 30.00 in East 0.3 mph 4.6 mph 75 % 0.00 in
18:06 62.4 °F 54.4 °F 30.00 in East 1.2 mph 3.5 mph 75 % 0.00 in
18:11 62.5 °F 54.1 °F 30.00 in East 1.0 mph 3.5 mph 74 % 0.00 in
18:16 62.7 °F 54.3 °F 30.00 in ENE 1.7 mph 3.5 mph 74 % 0.00 in
18:21 62.6 °F 53.8 °F 30.00 in ENE 2.2 mph 5.0 mph 73 % 0.00 in
18:26 62.3 °F 53.5 °F 30.00 in NE 1.6 mph 3.5 mph 73 % 0.00 in
18:31 62.2 °F 53.8 °F 30.01 in NE 0.8 mph 2.3 mph 74 % 0.00 in
18:36 61.8 °F 53.1 °F 30.01 in ENE 1.6 mph 3.0 mph 73 % 0.00 in
18:41 61.3 °F 52.6 °F 30.00 in ENE 1.0 mph 2.3 mph 73 % 0.00 in
18:46 60.9 °F 52.9 °F 30.00 in ENE 0.4 mph 1.2 mph 75 % 0.00 in
18:51 60.5 °F 52.9 °F 30.00 in Calm     76 % 0.00 in
18:57 60.2 °F 53.0 °F 30.00 in SSE 1.9 mph 4.6 mph 77 % 0.00 in
19:02 60.0 °F 53.5 °F 30.01 in SSE 2.0 mph 4.0 mph 79 % 0.00 in
19:07 60.0 °F 53.8 °F 30.00 in SE 1.5 mph 4.6 mph 80 % 0.00 in
19:12 59.9 °F 53.4 °F 30.00 in SSE 3.9 mph 8.1 mph 79 % 0.00 in
19:17 59.8 °F 53.6 °F 30.00 in SSE 6.3 mph 8.1 mph 80 % 0.00 in
19:22 59.5 °F 53.3 °F 30.01 in SSE 1.8 mph 4.0 mph 80 % 0.00 in
19:27 59.3 °F 53.1 °F 30.01 in SSE 4.9 mph 10.0 mph 80 % 0.00 in
19:32 59.0 °F 52.8 °F 30.01 in SSE 1.6 mph 3.5 mph 80 % 0.00 in
19:37 58.7 °F 52.5 °F 30.01 in SSW 2.5 mph 5.0 mph 80 % 0.00 in
19:42 58.5 °F 52.7 °F 30.01 in SE 0.9 mph 3.5 mph 81 % 0.00 in
19:47 58.3 °F 52.5 °F 30.02 in SSE 0.6 mph 2.3 mph 81 % 0.00 in
19:52 58.1 °F 52.3 °F 30.02 in SSE 0.8 mph 2.3 mph 81 % 0.00 in
19:57 57.9 °F 52.4 °F 30.01 in SSE 0.9 mph 2.3 mph 82 % 0.00 in
20:02 57.7 °F 52.2 °F 30.02 in SSW 4.2 mph 7.0 mph 82 % 0.00 in
20:07 57.3 °F 51.9 °F 30.02 in South 3.3 mph 6.9 mph 82 % 0.00 in
20:12 56.9 °F 51.8 °F 30.01 in SE 2.4 mph 5.0 mph 83 % 0.00 in
20:17 56.5 °F 51.4 °F 30.01 in SSE 3.5 mph 5.8 mph 83 % 0.00 in
20:22 56.3 °F 51.5 °F 30.01 in SSE 1.9 mph 8.0 mph 84 % 0.00 in
20:27 56.0 °F 51.2 °F 30.01 in SE 2.7 mph 4.0 mph 84 % 0.00 in
20:32 55.8 °F 51.0 °F 30.02 in ESE 0.3 mph 1.2 mph 84 % 0.00 in
20:37 55.7 °F 50.9 °F 30.02 in SE 1.7 mph 3.5 mph 84 % 0.00 in
20:42 55.4 °F 50.6 °F 30.02 in SE 2.4 mph 8.1 mph 84 % 0.00 in
20:47 55.1 °F 50.4 °F 30.02 in SE 1.7 mph 6.9 mph 84 % 0.00 in
20:52 55.0 °F 50.6 °F 30.03 in SE 2.7 mph 5.0 mph 85 % 0.00 in
20:57 54.8 °F 50.4 °F 30.03 in SE 1.2 mph 4.6 mph 85 % 0.00 in
21:02 54.6 °F 50.2 °F 30.03 in SE 2.3 mph 4.0 mph 85 % 0.00 in
21:07 54.5 °F 50.1 °F 30.03 in Calm   2.0 mph 85 % 0.00 in
21:12 54.3 °F 50.2 °F 30.03 in SSE 1.0 mph 3.5 mph 86 % 0.00 in
21:17 54.2 °F 50.1 °F 30.04 in SE 1.9 mph 4.6 mph 86 % 0.00 in
21:22 54.1 °F 50.0 °F 30.04 in ESE 2.1 mph 3.5 mph 86 % 0.00 in
21:27 53.9 °F 50.1 °F 30.04 in SE 0.4 mph 3.5 mph 87 % 0.00 in
21:32 53.9 °F 50.1 °F 30.04 in SE 0.9 mph 2.3 mph 87 % 0.00 in
21:37 53.8 °F 50.0 °F 30.04 in SE 0.3 mph 3.5 mph 87 % 0.00 in
21:42 53.7 °F 49.9 °F 30.04 in SE 1.8 mph 3.5 mph 87 % 0.00 in
21:47 53.7 °F 49.9 °F 30.05 in SE 1.0 mph 3.5 mph 87 % 0.00 in
21:52 53.7 °F 49.9 °F 30.04 in SE 1.5 mph 5.8 mph 87 % 0.00 in
21:57 53.7 °F 50.2 °F 30.04 in SSE 2.9 mph 3.5 mph 88 % 0.00 in
22:02 53.7 °F 49.9 °F 30.04 in SSE 3.5 mph 8.1 mph 87 % 0.00 in
22:07 53.7 °F 49.9 °F 30.05 in SSE 2.4 mph 6.9 mph 87 % 0.00 in
22:12 53.8 °F 50.0 °F 30.04 in SSE 3.9 mph 4.6 mph 87 % 0.00 in
22:17 53.9 °F 50.1 °F 30.04 in ESE 4.0 mph 8.1 mph 87 % 0.00 in
22:22 53.8 °F 50.0 °F 30.04 in SE 3.0 mph 7.0 mph 87 % 0.00 in
22:27 53.8 °F 50.0 °F 30.03 in SE 3.0 mph 9.0 mph 87 % 0.00 in
22:32 53.7 °F 49.9 °F 30.03 in SE 5.0 mph 12.0 mph 87 % 0.00 in
22:33 53.7 °F 49.9 °F 30.03 in SE 1.6 mph 5.8 mph 87 % 0.00 in
22:38 53.6 °F 50.1 °F 30.03 in ESE 3.3 mph 11.5 mph 88 % 0.00 in
22:43 53.5 °F 50.0 °F 30.03 in ESE 2.8 mph 5.0 mph 88 % 0.00 in
22:48 53.3 °F 49.8 °F 30.03 in SSE 3.8 mph 5.0 mph 88 % 0.00 in
22:53 53.1 °F 49.6 °F 30.03 in SE 5.5 mph 8.1 mph 88 % 0.00 in
22:58 53.0 °F 49.5 °F 30.03 in SSE 3.2 mph 8.1 mph 88 % 0.00 in
23:03 52.9 °F 49.7 °F 30.03 in ESE 3.8 mph 6.0 mph 89 % 0.00 in
23:08 52.7 °F 49.5 °F 30.03 in SE 4.5 mph 6.9 mph 89 % 0.00 in
23:13 52.6 °F 49.4 °F 30.03 in SE 4.0 mph 6.9 mph 89 % 0.00 in
23:18 52.6 °F 49.4 °F 30.03 in ESE 0.7 mph 5.8 mph 89 % 0.00 in
23:23 52.5 °F 49.4 °F 30.02 in ESE 5.8 mph 7.0 mph 89 % 0.00 in
23:28 52.5 °F 49.4 °F 30.02 in SSE 2.5 mph 4.0 mph 89 % 0.00 in
23:33 52.4 °F 49.6 °F 30.02 in SE 2.8 mph 5.0 mph 90 % 0.00 in
23:38 52.3 °F 49.5 °F 30.02 in SE 4.5 mph 7.0 mph 90 % 0.00 in
23:43 52.3 °F 49.5 °F 30.03 in SSE 6.2 mph 9.2 mph 90 % 0.00 in
23:48 52.2 °F 49.1 °F 30.03 in SE 1.1 mph 4.6 mph 89 % 0.00 in
23:53 52.1 °F 49.0 °F 30.03 in SSE 5.4 mph 9.2 mph 89 % 0.00 in
23:58 52.0 °F 48.9 °F 30.03 in SE 3.2 mph 9.2 mph 89 % 0.00 in
Crab Meadow Weather
Compliments of Weather Underground - 3 mb

Script developed by  Jim McMurry - jmcmurry@mwt.net Adapted for the template by  Wim van der Kuil - Leuven-Template.eu

Lightning: The chances of being hit by lightning is 1:28,500.